Location: Newark
(40.9833°N, 0.0333°W)
Time: 17:24:17
(UTC+00:00)

Altair - Pass Details

Date: 31 October 2020
Orbit: 1502 x 1682 km, 47.2° (Epoch: 23 November)

Event Time Altitude Azimuth Distance (km) Brightness Sun altitude
Rises 02:32:26 0° 200° (SSW) 4,620 - -44.7°
Reaches altitude 10° 02:35:49 10° 191° (S) 3,644 - -44.1°
Exits shadow 02:43:13 33° 136° (SE) 2,345 8.5 -42.8°
Maximum altitude 02:43:38 33° 132° (SE) 2,342 8.5 -42.8°
Drops below altitude 10° 02:51:35 10° 73° (ENE) 3,724 10.2 -41.3°
Sets 02:55:03 0° 64° (ENE) 4,735 10.9 -40.7°
